Sioux City, IA

11:56 PM CDT on September 24, 2017 (GMT -0500)
Sioux Gateway

Weather History for KSUX - March, 2011

Change the Weather History Date:

Wednesday, March 9, 2011

  Actual Average Record
Temperature  
Mean Temperature 27 °F 33 °F  
Max Temperature 34 °F 44 °F 72 °F (2014)
Min Temperature 19 °F 23 °F -3 °F (1996)
Degree Days  
Heating Degree Days 38 32  
Month to date heating degree days 336 300  
Since 1 July heating degree days 5777 5594  
Cooling Degree Days 0 0  
Month to date cooling degree days 0 0  
Year to date cooling degree days 0 0  
Moisture  
Dew Point 22 °F    
Average Humidity 83    
Maximum Humidity 92    
Minimum Humidity 74    
Precipitation  
Precipitation T in 0.05 in 0.71 in (2013)
Month to date precipitation 0.20 0.41  
Year to date precipitation 2.76 1.70  
Snow  
Snow T in 0.20 in 5.90 in (1970)
Month to date snowfall 2.4 2.2  
Since 1 July snowfall 37.7 28.7  
Snow Depth T in    
Sea Level Pressure  
Sea Level Pressure 30.13 in    
Wind  
Wind Speed 17 mph (NW)    
Max Wind Speed 28 mph    
Max Gust Speed 35 mph    
Visibility 7 miles    
Events Snow    
T = Trace of Precipitation, MM = Missing Value Source: NWS Daily Summary

Daily Weather History Graph

Daily Weather History Graph

Search for Another Location

Airport or City:

Trip Planner

Search our weather history database for the weather conditions in past years. The results will help you decide how hot, cold, wet, or windy it might be!

Date:

Astronomy

Mar. 09, 2011 Rise Set
Actual Time 6:48 AM CST 6:24 PM CST
Civil Twilight 6:20 AM CST 6:52 PM CST
Nautical Twilight 5:47 AM CST 7:25 PM CST
Astronomical Twilight 5:14 AM CST 7:58 PM CST
Moon 8:33 AM CST (3/9) 11:31 PM CST (3/9)
Length of Visible Light 12h 32m
Length of Day
11h 36m
Waxing Crescent, 20% of the Moon is Illuminated
Mar 9
Waxing Crescent
Mar 12
First Quarter
Mar 19
Full
Mar 26
Last Quarter
Apr 3
New

Hourly Weather History & Observations

Time (CST) Temp. Windchill Dew Point Humidity Pressure Visibility Wind Dir Wind Speed Gust Speed Precip Events Conditions
12:48 AM 33.8 °F 26.4 °F 30.2 °F 87% 30.00 in 5.0 mi North 9.2 mph - N/A   Overcast
12:52 AM 33.1 °F 26.1 °F 30.9 °F 92% 30.03 in 4.0 mi North 8.1 mph - N/A   Overcast
1:19 AM 33.8 °F 26.4 °F 30.2 °F 87% 30.00 in 5.0 mi North 9.2 mph - N/A   Overcast
1:52 AM 33.1 °F 24.9 °F 30.0 °F 89% 30.03 in 5.0 mi North 10.4 mph - N/A   Overcast
2:52 AM 33.1 °F 24.9 °F 30.0 °F 89% 30.03 in 5.0 mi NNW 10.4 mph - N/A   Overcast
3:52 AM 32.0 °F 21.2 °F 30.0 °F 92% 30.02 in 3.0 mi NW 16.1 mph - N/A   Overcast
4:52 AM 28.9 °F 17.7 °F 27.0 °F 92% 30.03 in 3.0 mi NNW 15.0 mph 23.0 mph N/A   Overcast
5:52 AM 27.0 °F 13.9 °F 24.1 °F 89% 30.05 in 5.0 mi NW 18.4 mph - N/A   Overcast
6:52 AM 26.1 °F 13.1 °F 21.9 °F 84% 30.07 in 6.0 mi NW 17.3 mph 24.2 mph N/A   Overcast
7:23 AM 26.6 °F 14.3 °F 21.2 °F 80% 30.03 in 2.5 mi NW 16.1 mph - 0.00 in Snow Light Snow
7:42 AM 24.8 °F 11.5 °F 21.2 °F 86% 30.05 in 1.5 mi NW 17.3 mph - 0.00 in Snow Light Snow
7:52 AM 26.1 °F 13.1 °F 23.0 °F 88% 30.09 in 2.5 mi NW 17.3 mph 23.0 mph 0.00 in Snow Light Snow
8:06 AM 26.6 °F 13.1 °F 21.2 °F 80% 30.05 in 1.8 mi NW 19.6 mph 25.3 mph 0.00 in Snow Light Snow
8:16 AM 26.6 °F 12.7 °F 21.2 °F 80% 30.06 in 2.5 mi NW 20.7 mph 27.6 mph 0.00 in Snow Light Snow
8:52 AM 26.1 °F 12.0 °F 21.9 °F 84% 30.10 in 2.0 mi NW 20.7 mph 25.3 mph 0.00 in Snow Light Snow
9:21 AM 24.8 °F 9.6 °F 21.2 °F 86% 30.07 in 4.0 mi NW 23.0 mph 28.8 mph 0.00 in Snow Light Snow
9:52 AM 25.0 °F 10.2 °F 21.0 °F 85% 30.12 in 7.0 mi NW 21.9 mph 28.8 mph 0.00 in   Overcast
10:18 AM 24.8 °F 10.3 °F 19.4 °F 80% 30.08 in 10.0 mi NW 20.7 mph 27.6 mph N/A   Overcast
10:52 AM 27.0 °F 13.5 °F 21.9 °F 81% 30.13 in 10.0 mi NW 19.6 mph - N/A   Mostly Cloudy
11:52 AM 28.0 °F 14.3 °F 23.0 °F 81% 30.14 in 10.0 mi NW 21.9 mph 27.6 mph N/A   Overcast
12:33 PM 28.4 °F 15.4 °F 21.2 °F 74% 30.11 in 10.0 mi NW 19.6 mph 28.8 mph N/A   Mostly Cloudy
12:52 PM 28.9 °F 15.8 °F 21.9 °F 75% 30.15 in 10.0 mi NW 20.7 mph 29.9 mph N/A   Mostly Cloudy
1:52 PM 28.9 °F 16.1 °F 23.0 °F 78% 30.15 in 10.0 mi NW 19.6 mph 29.9 mph N/A   Mostly Cloudy
2:52 PM 28.9 °F 15.4 °F 21.9 °F 75% 30.16 in 10.0 mi NW 21.9 mph 29.9 mph N/A   Mostly Cloudy
3:52 PM 28.9 °F 15.4 °F 21.9 °F 75% 30.19 in 10.0 mi NW 21.9 mph 31.1 mph N/A   Mostly Cloudy
4:48 PM 28.4 °F 15.1 °F 21.2 °F 74% 30.17 in 10.0 mi NW 20.7 mph 25.3 mph N/A   Partly Cloudy
4:52 PM 27.0 °F 13.2 °F 19.9 °F 75% 30.21 in 10.0 mi NW 20.7 mph 27.6 mph N/A   Scattered Clouds
5:52 PM 26.1 °F 12.7 °F 19.0 °F 75% 30.25 in 10.0 mi NW 18.4 mph - N/A   Scattered Clouds
6:52 PM 24.1 °F 10.1 °F 18.0 °F 77% 30.27 in 10.0 mi NNW 18.4 mph 23.0 mph N/A   Clear
7:52 PM 23.0 °F 9.2 °F 17.1 °F 78% 30.29 in 10.0 mi NW 17.3 mph - N/A   Clear
8:52 PM 21.9 °F 8.7 °F 16.0 °F 78% 30.32 in 10.0 mi NNW 15.0 mph 21.9 mph N/A   Partly Cloudy
9:52 PM 21.0 °F 7.6 °F 16.0 °F 81% 30.32 in 10.0 mi NNW 15.0 mph - N/A   Clear
10:52 PM 19.9 °F 7.3 °F 15.1 °F 81% 30.32 in 10.0 mi NNW 12.7 mph - N/A   Clear
11:52 PM 19.0 °F 5.6 °F 14.0 °F 81% 30.33 in 10.0 mi NNW 13.8 mph - N/A   Clear